Regional Weather Roundup
Issued by NWS

Home | Current Version | Previous Version | Graphics & Text | Print | Product List | Glossary On
Versions: 1 2 3 4 5 6 7 8 9 10 11 12 13 14 15 16 17 18 19 20 21 22 23 24 25 26 27 28 29 30 31 32 33 34 35 36 37 38 39 40 41 42 43 44 45 46 47 48 49 50
000
ASUS43 KBIS 270202
RWRND

NORTH DAKOTA REGIONAL WEATHER ROUNDUP
NATIONAL WEATHER SERVICE BISMARCK ND
900 PM CDT SUN MAR 26 2017

NOTE: "FAIR" INDICATES FEW OR NO CLOUDS BELOW 12,000 FEET WITH NO
SIGNIFICANT WEATHER AND/OR OBSTRUCTIONS TO VISIBILITY.


NDZ001>003-009>011-017-270300-
NORTHWEST NORTH DAKOTA

CITY           SKY/WX    TMP DP  RH WIND       PRES   REMARKS
WILLISTON      FAIR      51  25  36 NW12      29.87R
MINOT          FAIR      47  39  74 SE8       29.87S
MINOT AFB      CLOUDY    42  37  84 SE10      29.86F
$$

NDZ018>021-031>035-040>046-270300-
SOUTHWEST NORTH DAKOTA

CITY           SKY/WX    TMP DP  RH WIND       PRES   REMARKS
BISMARCK       FAIR      46  35  65 SE5       29.92R
DICKINSON      FAIR      46  27  47 CALM      29.86S
GARRISON         N/A     51  35  54 SW12G20   29.89R
HETTINGER ARPT CLEAR     43  34  70 SW5       29.90R
$$

NDZ004>008-012>016-024-026-027-054-270300-
NORTHEAST NORTH DAKOTA

CITY           SKY/WX    TMP DP  RH WIND       PRES   REMARKS
GRAND FORKS    PTCLDY    37  36  96 CALM      29.95R
GRND FRKS AFB  CLEAR     35  35  99 CALM      29.95R FOG
DEVILS LAKE    FAIR      41  38  89 E10       29.93S
$$

NDZ022-023-025-028>030-036>039-047>053-270300-
SOUTHEAST NORTH DAKOTA

CITY           SKY/WX    TMP DP  RH WIND       PRES   REMARKS
FARGO          CLOUDY    39  37  92 E3        29.95R
JAMESTOWN      FAIR      41  36  82 SE3       29.92R
$$




USA.gov is the U.S. government's official web portal to all federal, state and local government web resources and services.